Simultaneous Nadir Overpasses (SNOs) Predictions

Prediction of SNOs between GOES-14 and AQUA Satellite Orbit:

Table of predicted SNOs for the next 14.0 days since TLE Epoch: 9/14/2018
Index Date Time (GOES-14) GOES-14 Lat,Lon AQUA Lat,Lon Distance(km) Time Diff (sec)
1 09/15/2018 20:20:48 -0.35,-104.23 0.36,-101.01 366.54 80
2 09/16/2018 08:42:02 0.34,-104.14 0.78,-106.16 229.66 80
3 09/18/2018 08:27:08 0.34,-104.11 0.16,-103.19 104.61 80
4 09/18/2018 20:48:33 -0.32,-104.18 -1.20,-108.39 479.11 80
5 09/20/2018 08:14:55 0.33,-104.09 -0.51,-100.23 439.02 80
6 09/20/2018 20:36:19 -0.32,-104.16 -0.59,-105.43 144.20 80
7 09/22/2018 20:26:45 -0.32,-104.14 0.03,-102.46 190.76 80
8 09/23/2018 08:47:59 0.30,-104.08 1.04,-107.62 401.57 80
9 09/25/2018 08:35:46 0.30,-104.06 0.41,-104.65 66.72 80
10 09/27/2018 08:20:52 0.31,-104.04 -0.21,-101.69 268.10 80
11 09/27/2018 20:42:15 -0.29,-104.07 -0.89,-106.88 318.97 80




NCC Satellite Simultaneous Nadir Overpasses (SNOs) Prediction Service
